Time,TemperatureF,DewpointF,PressureIn,WindDirection,WindDirectionDegrees,WindSpeedMPH,WindSpeedGustMPH,Humidity,HourlyPrecipIn,Conditions,Clouds,dailyrainin,SoftwareType,DateUTC
2013-04-23 00:01:00,69.3,66.9,29.97,SE,129,8.0,8.0,92,0.00,,---,0.00,VWS V14.01,2013-04-23 05:01:00,
2013-04-23 00:06:00,69.4,67.0,29.97,SSE,165,10.0,13.0,92,0.00,,---,0.00,VWS V14.01,2013-04-23 05:06:00,
2013-04-23 00:11:00,69.4,67.0,29.97,SSE,166,2.0,13.0,92,0.00,,---,0.00,VWS V14.01,2013-04-23 05:11:00,
2013-04-23 00:16:00,69.3,66.9,29.97,ESE,121,4.0,13.0,92,0.00,,---,0.00,VWS V14.01,2013-04-23 05:16:00,
2013-04-23 00:21:00,69.3,66.9,29.97,SE,131,5.0,13.0,92,0.00,,---,0.00,VWS V14.01,2013-04-23 05:21:00,
2013-04-23 00:26:00,69.3,66.9,29.97,ESE,120,5.0,13.0,92,0.00,,---,0.00,VWS V14.01,2013-04-23 05:26:00,
2013-04-23 00:31:00,69.3,66.9,29.96,SE,133,4.0,13.0,92,0.00,,---,0.00,VWS V14.01,2013-04-23 05:31:00,
2013-04-23 00:36:00,69.3,66.9,29.96,SSE,161,4.0,13.0,92,0.00,,---,0.00,VWS V14.01,2013-04-23 05:36:00,
2013-04-23 00:42:00,69.3,66.9,29.96,SSE,161,2.0,13.0,92,0.00,,---,0.00,VWS V14.01,2013-04-23 05:42:00,
2013-04-23 00:47:00,69.2,66.8,29.95,SSE,159,5.0,13.0,92,0.00,,---,0.00,VWS V14.01,2013-04-23 05:47:00,
2013-04-23 00:52:00,69.2,66.8,29.95,SE,132,3.0,13.0,92,0.00,,---,0.00,VWS V14.01,2013-04-23 05:52:00,
2013-04-23 00:57:00,69.2,66.8,29.95,SSE,150,6.0,13.0,92,0.00,,---,0.00,VWS V14.01,2013-04-23 05:57:00,
2013-04-23 01:02:00,69.2,66.8,29.95,SE,133,4.0,11.0,92,0.00,,---,0.00,VWS V14.01,2013-04-23 06:02:00,
2013-04-23 01:07:00,69.1,66.7,29.95,SSE,155,7.0,11.0,92,0.00,,---,0.00,VWS V14.01,2013-04-23 06:07:00,
2013-04-23 01:12:00,69.2,66.8,29.95,ESE,120,4.0,12.0,92,0.00,,---,0.00,VWS V14.01,2013-04-23 06:12:00,
2013-04-23 01:17:00,69.1,66.7,29.95,ESE,120,7.0,12.0,92,0.00,,---,0.00,VWS V14.01,2013-04-23 06:17:00,
2013-04-23 01:22:00,69.1,66.7,29.95,SSW,203,3.0,12.0,92,0.00,,---,0.00,VWS V14.01,2013-04-23 06:22:00,
2013-04-23 01:27:00,69.2,66.8,29.94,SE,128,4.0,12.0,92,0.00,,---,0.00,VWS V14.01,2013-04-23 06:27:00,
2013-04-23 01:32:00,69.2,66.8,29.94,SSE,149,5.0,12.0,92,0.00,,---,0.00,VWS V14.01,2013-04-23 06:32:00,
2013-04-23 01:37:00,69.2,66.8,29.94,ESE,108,10.0,12.0,92,0.00,,---,0.00,VWS V14.01,2013-04-23 06:37:00,
2013-04-23 01:42:00,69.2,66.8,29.94,South,172,9.0,12.0,92,0.00,,---,0.00,VWS V14.01,2013-04-23 06:42:00,
2013-04-23 01:47:00,69.2,66.8,29.94,SSE,150,7.0,13.0,92,0.00,,---,0.00,VWS V14.01,2013-04-23 06:47:00,
2013-04-23 01:52:00,69.3,66.9,29.94,ESE,118,5.0,13.0,92,0.00,,---,0.00,VWS V14.01,2013-04-23 06:52:00,
2013-04-23 01:57:00,69.3,66.9,29.94,SE,135,8.0,13.0,92,0.00,,---,0.00,VWS V14.01,2013-04-23 06:57:00,
2013-04-23 02:02:00,69.3,66.9,29.94,SSE,162,4.0,10.0,92,0.00,,---,0.00,VWS V14.01,2013-04-23 07:02:00,
2013-04-23 02:07:00,69.3,66.9,29.93,SSE,150,3.0,12.0,92,0.00,,---,0.00,VWS V14.01,2013-04-23 07:07:00,
2013-04-23 02:12:00,69.3,66.9,29.93,SSE,155,4.0,12.0,92,0.00,,---,0.00,VWS V14.01,2013-04-23 07:12:00,
2013-04-23 02:17:00,69.4,67.0,29.93,SSE,152,10.0,12.0,92,0.00,,---,0.00,VWS V14.01,2013-04-23 07:17:00,
2013-04-23 02:22:00,69.4,67.0,29.93,SSE,159,6.0,12.0,92,0.00,,---,0.00,VWS V14.01,2013-04-23 07:22:00,
2013-04-23 02:27:00,69.4,67.0,29.93,SE,145,3.0,12.0,92,0.00,,---,0.00,VWS V14.01,2013-04-23 07:27:00,
2013-04-23 02:32:00,69.4,67.0,29.92,East,88,6.0,12.0,92,0.00,,---,0.00,VWS V14.01,2013-04-23 07:32:00,
2013-04-23 02:37:00,69.4,67.0,29.92,SE,125,1.0,12.0,92,0.00,,---,0.00,VWS V14.01,2013-04-23 07:37:00,
2013-04-23 02:42:00,69.3,67.2,29.92,ESE,107,6.0,12.0,93,0.00,,---,0.00,VWS V14.01,2013-04-23 07:42:00,
2013-04-23 02:47:00,69.3,67.2,29.91,SSE,159,6.0,12.0,93,0.00,,---,0.00,VWS V14.01,2013-04-23 07:47:00,
2013-04-23 02:52:00,69.3,67.2,29.91,SE,135,8.0,12.0,93,0.00,,---,0.00,VWS V14.01,2013-04-23 07:52:00,
2013-04-23 02:57:00,69.3,67.2,29.91,South,172,8.0,12.0,93,0.00,,---,0.00,VWS V14.01,2013-04-23 07:57:00,
2013-04-23 03:02:00,69.3,67.2,29.91,SSE,153,3.0,8.0,93,0.00,,---,0.00,VWS V14.01,2013-04-23 08:02:00,
2013-04-23 03:07:00,69.3,67.2,29.91,SSW,205,7.0,10.0,93,0.00,,---,0.00,VWS V14.01,2013-04-23 08:07:00,
2013-04-23 03:12:00,69.3,67.2,29.90,SE,142,8.0,11.0,93,0.00,,---,0.00,VWS V14.01,2013-04-23 08:12:00,
2013-04-23 03:17:00,69.3,67.2,29.90,SSE,161,3.0,11.0,93,0.00,,---,0.00,VWS V14.01,2013-04-23 08:17:00,
2013-04-23 03:22:00,69.3,67.2,29.90,SE,138,4.0,11.0,93,0.00,,---,0.00,VWS V14.01,2013-04-23 08:22:00,
2013-04-23 03:27:00,69.3,67.2,29.90,SSW,200,10.0,11.0,93,0.00,,---,0.00,VWS V14.01,2013-04-23 08:27:00,
2013-04-23 03:32:00,69.3,67.2,29.90,SSE,152,4.0,11.0,93,0.00,,---,0.00,VWS V14.01,2013-04-23 08:32:00,
2013-04-23 03:37:00,69.3,67.2,29.90,SSE,158,3.0,12.0,93,0.00,,---,0.00,VWS V14.01,2013-04-23 08:37:00,
2013-04-23 03:42:00,69.4,67.3,29.90,SSE,150,10.0,12.0,93,0.00,,---,0.00,VWS V14.01,2013-04-23 08:42:00,
2013-04-23 03:47:00,69.3,67.2,29.90,South,188,8.0,12.0,93,0.00,,---,0.00,VWS V14.01,2013-04-23 08:47:00,
2013-04-23 03:52:00,69.3,67.2,29.90,East,93,7.0,12.0,93,0.00,,---,0.00,VWS V14.01,2013-04-23 08:52:00,
2013-04-23 03:56:00,69.3,67.2,29.90,SSW,195,5.0,13.0,93,0.00,,---,0.00,VWS V14.01,2013-04-23 08:56:00,
2013-04-23 04:01:00,69.3,67.2,29.90,SSE,164,5.0,12.0,93,0.00,,---,0.00,VWS V14.01,2013-04-23 09:01:00,
2013-04-23 04:06:00,69.3,67.2,29.90,SE,135,6.0,12.0,93,0.00,,---,0.00,VWS V14.01,2013-04-23 09:06:00,
2013-04-23 04:11:00,69.3,67.2,29.90,South,169,6.0,12.0,93,0.00,,---,0.00,VWS V14.01,2013-04-23 09:11:00,
2013-04-23 04:16:00,69.3,67.2,29.90,SE,129,5.0,12.0,93,0.00,,---,0.00,VWS V14.01,2013-04-23 09:16:00,
2013-04-23 04:21:00,69.3,67.2,29.90,South,169,7.0,12.0,93,0.00,,---,0.00,VWS V14.01,2013-04-23 09:21:00,
2013-04-23 04:26:00,69.3,67.2,29.90,South,170,4.0,12.0,93,0.00,,---,0.00,VWS V14.01,2013-04-23 09:26:00,
2013-04-23 04:31:00,69.3,66.9,29.90,SE,128,4.0,12.0,92,0.00,,---,0.00,VWS V14.01,2013-04-23 09:31:00,
2013-04-23 04:36:00,69.3,67.2,29.90,SSE,160,4.0,12.0,93,0.00,,---,0.00,VWS V14.01,2013-04-23 09:36:00,
2013-04-23 04:42:00,69.4,67.3,29.90,ESE,121,3.0,12.0,93,0.00,,---,0.00,VWS V14.01,2013-04-23 09:42:00,
2013-04-23 04:47:00,69.4,67.3,29.90,South,173,3.0,12.0,93,0.00,,---,0.00,VWS V14.01,2013-04-23 09:47:00,
2013-04-23 04:52:00,69.3,67.2,29.90,East,98,11.0,12.0,93,0.00,,---,0.00,VWS V14.01,2013-04-23 09:52:00,
2013-04-23 04:57:00,69.3,67.2,29.90,SSE,154,8.0,12.0,93,0.00,,---,0.00,VWS V14.01,2013-04-23 09:57:00,
2013-04-23 05:02:00,69.2,67.1,29.90,SSE,162,7.0,10.0,93,0.00,,---,0.00,VWS V14.01,2013-04-23 10:02:00,
2013-04-23 05:07:00,69.2,67.1,29.90,SW,214,7.0,10.0,93,0.00,,---,0.00,VWS V14.01,2013-04-23 10:07:00,
2013-04-23 05:12:00,69.2,67.1,29.90,SSE,152,4.0,13.0,93,0.00,,---,0.00,VWS V14.01,2013-04-23 10:12:00,
2013-04-23 05:17:00,69.2,67.4,29.89,South,172,4.0,13.0,94,0.00,,---,0.00,VWS V14.01,2013-04-23 10:17:00,
2013-04-23 05:22:00,69.2,67.4,29.90,SSE,164,7.0,13.0,94,0.00,,---,0.00,VWS V14.01,2013-04-23 10:22:00,
2013-04-23 05:27:00,69.2,67.4,29.90,SSE,159,7.0,13.0,94,0.00,,---,0.00,VWS V14.01,2013-04-23 10:27:00,
2013-04-23 05:32:00,69.2,67.4,29.90,South,181,7.0,13.0,94,0.00,,---,0.00,VWS V14.01,2013-04-23 10:32:00,
2013-04-23 05:37:00,69.2,67.4,29.90,SE,133,3.0,13.0,94,0.00,,---,0.00,VWS V14.01,2013-04-23 10:37:00,
2013-04-23 05:42:00,69.1,67.3,29.90,SE,143,7.0,13.0,94,0.00,,---,0.00,VWS V14.01,2013-04-23 10:42:00,
2013-04-23 05:47:00,69.1,67.3,29.90,SSE,162,5.0,13.0,94,0.00,,---,0.00,VWS V14.01,2013-04-23 10:47:00,
2013-04-23 05:52:00,69.1,67.3,29.90,ESE,122,8.0,13.0,94,0.00,,---,0.00,VWS V14.01,2013-04-23 10:52:00,
2013-04-23 05:57:00,69.1,67.3,29.90,SSW,204,4.0,13.0,94,0.00,,---,0.00,VWS V14.01,2013-04-23 10:57:00,
2013-04-23 06:02:00,69.1,67.3,29.90,SSE,153,6.0,11.0,94,0.00,,---,0.00,VWS V14.01,2013-04-23 11:02:00,
2013-04-23 06:07:00,69.1,67.3,29.90,SSE,159,1.0,11.0,94,0.00,,---,0.00,VWS V14.01,2013-04-23 11:07:00,
2013-04-23 06:11:00,69.1,67.3,29.90,SSW,200,7.0,11.0,94,0.00,,---,0.00,VWS V14.01,2013-04-23 11:11:00,
2013-04-23 06:16:00,69.1,67.3,29.90,SE,134,7.0,11.0,94,0.00,,---,0.00,VWS V14.01,2013-04-23 11:16:00,
2013-04-23 06:21:00,69.1,67.3,29.90,SE,127,6.0,11.0,94,0.00,,---,0.00,VWS V14.01,2013-04-23 11:21:00,
2013-04-23 06:26:00,69.1,67.3,29.91,South,172,4.0,11.0,94,0.00,,---,0.00,VWS V14.01,2013-04-23 11:26:00,
2013-04-23 06:31:00,69.2,67.4,29.91,South,169,5.0,11.0,94,0.00,,---,0.00,VWS V14.01,2013-04-23 11:31:00,
2013-04-23 06:36:00,69.2,67.4,29.91,South,191,5.0,11.0,94,0.00,,---,0.00,VWS V14.01,2013-04-23 11:36:00,
2013-04-23 06:41:00,69.2,67.4,29.91,SSW,196,7.0,11.0,94,0.00,,---,0.00,VWS V14.01,2013-04-23 11:41:00,
2013-04-23 06:46:00,69.1,67.3,29.91,SSE,161,6.0,11.0,94,0.00,,---,0.00,VWS V14.01,2013-04-23 11:46:00,
2013-04-23 06:51:00,69.1,67.3,29.91,SSE,150,1.0,11.0,94,0.00,,---,0.00,VWS V14.01,2013-04-23 11:51:00,
2013-04-23 06:56:00,69.2,67.4,29.91,South,169,3.0,11.0,94,0.00,,---,0.00,VWS V14.01,2013-04-23 11:56:00,
2013-04-23 07:01:00,69.2,67.4,29.91,SSE,154,5.0,10.0,94,0.00,,---,0.00,VWS V14.01,2013-04-23 12:01:00,
2013-04-23 07:06:00,69.2,67.4,29.91,South,180,5.0,10.0,94,0.00,,---,0.00,VWS V14.01,2013-04-23 12:06:00,
2013-04-23 07:11:00,69.3,67.5,29.91,SSE,151,6.0,10.0,94,0.00,,---,0.00,VWS V14.01,2013-04-23 12:11:00,
2013-04-23 07:16:00,69.4,67.6,29.91,SE,127,4.0,10.0,94,0.00,,---,0.00,VWS V14.01,2013-04-23 12:16:00,
2013-04-23 07:21:00,69.6,67.8,29.91,South,173,6.0,10.0,94,0.00,,---,0.00,VWS V14.01,2013-04-23 12:21:00,
2013-04-23 07:26:00,69.7,67.9,29.91,ESE,120,6.0,10.0,94,0.00,,---,0.00,VWS V14.01,2013-04-23 12:26:00,
2013-04-23 07:31:00,69.8,68.0,29.92,SE,145,7.0,10.0,94,0.00,,---,0.00,VWS V14.01,2013-04-23 12:31:00,
2013-04-23 07:36:00,69.9,67.8,29.92,South,169,2.0,10.0,93,0.00,,---,0.00,VWS V14.01,2013-04-23 12:36:00,
2013-04-23 07:41:00,70.1,68.0,29.92,SE,139,3.0,10.0,93,0.00,,---,0.00,VWS V14.01,2013-04-23 12:41:00,
2013-04-23 07:46:00,70.4,68.3,29.92,SE,146,3.0,11.0,93,0.00,,---,0.00,VWS V14.01,2013-04-23 12:46:00,
2013-04-23 07:51:00,70.6,68.5,29.92,SE,126,2.0,11.0,93,0.00,,---,0.00,VWS V14.01,2013-04-23 12:51:00,
2013-04-23 07:56:00,70.9,68.5,29.92,ESE,118,7.0,11.0,92,0.00,,---,0.00,VWS V14.01,2013-04-23 12:56:00,
2013-04-23 08:01:00,71.0,68.6,29.92,SSE,163,5.0,10.0,92,0.00,,---,0.00,VWS V14.01,2013-04-23 13:01:00,
2013-04-23 08:06:00,71.3,68.5,29.92,SE,133,6.0,10.0,91,0.00,,---,0.00,VWS V14.01,2013-04-23 13:06:00,
2013-04-23 08:11:00,71.6,68.8,29.92,SSW,204,3.0,10.0,91,0.00,,---,0.00,VWS V14.01,2013-04-23 13:11:00,
2013-04-23 08:16:00,71.8,69.0,29.93,South,172,8.0,10.0,91,0.00,,---,0.00,VWS V14.01,2013-04-23 13:16:00,
2013-04-23 08:21:00,72.0,68.9,29.93,SE,135,5.0,10.0,90,0.00,,---,0.00,VWS V14.01,2013-04-23 13:21:00,
2013-04-23 08:26:00,72.2,69.1,29.93,ESE,117,10.0,10.0,90,0.00,,---,0.00,VWS V14.01,2013-04-23 13:26:00,
2013-04-23 08:31:00,72.5,69.1,29.93,SE,131,3.0,10.0,89,0.00,,---,0.00,VWS V14.01,2013-04-23 13:31:00,
2013-04-23 08:36:00,72.7,69.3,29.93,SSE,159,5.0,10.0,89,0.00,,---,0.00,VWS V14.01,2013-04-23 13:36:00,
2013-04-23 08:41:00,72.9,69.1,29.93,SE,130,7.0,10.0,88,0.00,,---,0.00,VWS V14.01,2013-04-23 13:41:00,
2013-04-23 08:46:00,72.9,69.1,29.93,SSE,147,6.0,11.0,88,0.00,,---,0.00,VWS V14.01,2013-04-23 13:46:00,
2013-04-23 08:51:00,72.7,68.9,29.93,ESE,113,7.0,11.0,88,0.00,,---,0.00,VWS V14.01,2013-04-23 13:51:00,
2013-04-23 08:56:00,72.8,69.0,29.94,SE,133,9.0,12.0,88,0.00,,---,0.00,VWS V14.01,2013-04-23 13:56:00,
2013-04-23 09:01:00,72.8,69.0,29.94,ESE,117,5.0,10.0,88,0.00,,---,0.00,VWS V14.01,2013-04-23 14:01:00,
2013-04-23 09:06:00,72.9,69.1,29.94,SE,136,5.0,11.0,88,0.00,,---,0.00,VWS V14.01,2013-04-23 14:06:00,
2013-04-23 09:11:00,73.1,69.3,29.94,East,90,6.0,12.0,88,0.00,,---,0.00,VWS V14.01,2013-04-23 14:11:00,
2013-04-23 09:16:00,73.4,69.6,29.94,ESE,117,8.0,12.0,88,0.00,,---,0.00,VWS V14.01,2013-04-23 14:16:00,
2013-04-23 09:21:00,73.5,69.4,29.94,SE,142,5.0,12.0,87,0.00,,---,0.00,VWS V14.01,2013-04-23 14:21:00,
2013-04-23 09:26:00,73.4,69.0,29.94,ESE,108,5.0,15.0,86,0.00,,---,0.00,VWS V14.01,2013-04-23 14:26:00,
2013-04-23 09:31:00,73.5,69.7,29.94,SSE,163,11.0,15.0,88,0.00,,---,0.00,VWS V14.01,2013-04-23 14:31:00,
2013-04-23 09:36:00,73.5,69.4,29.94,SSE,165,6.0,16.0,87,0.00,,---,0.00,VWS V14.01,2013-04-23 14:36:00,
2013-04-23 09:41:00,73.5,69.4,29.94,ESE,102,10.0,16.0,87,0.00,,---,0.00,VWS V14.01,2013-04-23 14:41:00,
2013-04-23 09:46:00,73.7,69.3,29.94,East,101,7.0,16.0,86,0.00,,---,0.00,VWS V14.01,2013-04-23 14:46:00,
2013-04-23 09:51:00,73.9,69.8,29.94,ESE,106,9.0,16.0,87,0.00,,---,0.00,VWS V14.01,2013-04-23 14:51:00,
2013-04-23 09:56:00,73.8,69.7,29.94,ESE,118,6.0,16.0,87,0.00,,---,0.00,VWS V14.01,2013-04-23 14:56:00,
2013-04-23 10:01:00,74.2,70.1,29.94,ESE,117,8.0,8.0,87,0.00,,---,0.00,VWS V14.01,2013-04-23 15:01:00,
2013-04-23 10:06:00,74.4,69.6,29.94,South,177,8.0,17.0,85,0.00,,---,0.00,VWS V14.01,2013-04-23 15:06:00,
2013-04-23 10:11:00,74.4,69.6,29.94,ESE,118,11.0,17.0,85,0.00,,---,0.00,VWS V14.01,2013-04-23 15:11:00,
2013-04-23 10:16:00,74.3,69.5,29.95,ESE,117,12.0,17.0,85,0.00,,---,0.00,VWS V14.01,2013-04-23 15:16:00,
2013-04-23 10:21:00,74.4,69.6,29.94,ESE,112,11.0,17.0,85,0.00,,---,0.00,VWS V14.01,2013-04-23 15:21:00,
2013-04-23 10:26:00,74.4,69.6,29.95,SE,136,5.0,17.0,85,0.00,,---,0.00,VWS V14.01,2013-04-23 15:26:00,
2013-04-23 10:31:00,74.6,69.8,29.95,East,94,8.0,17.0,85,0.00,,---,0.00,VWS V14.01,2013-04-23 15:31:00,
2013-04-23 10:36:00,74.9,69.7,29.95,ESE,107,10.0,17.0,84,0.00,,---,0.00,VWS V14.01,2013-04-23 15:36:00,
2013-04-23 10:41:00,74.6,69.4,29.95,SE,143,10.0,17.0,84,0.00,,---,0.00,VWS V14.01,2013-04-23 15:41:00,
2013-04-23 10:46:00,74.7,69.9,29.95,ESE,115,6.0,17.0,85,0.00,,---,0.00,VWS V14.01,2013-04-23 15:46:00,
2013-04-23 10:51:00,74.8,69.7,29.95,SE,145,10.0,17.0,84,0.00,,---,0.00,VWS V14.01,2013-04-23 15:51:00,
2013-04-23 10:56:00,74.6,69.8,29.95,ESE,115,11.0,17.0,85,0.00,,---,0.00,VWS V14.01,2013-04-23 15:56:00,
2013-04-23 11:01:00,74.5,69.7,29.94,ESE,122,12.0,14.0,85,0.00,,---,0.00,VWS V14.01,2013-04-23 16:01:00,
2013-04-23 11:06:00,74.2,69.4,29.94,ESE,105,11.0,16.0,85,0.00,,---,0.00,VWS V14.01,2013-04-23 16:06:00,
2013-04-23 11:11:00,74.1,69.3,29.94,SSE,158,8.0,16.0,85,0.00,,---,0.00,VWS V14.01,2013-04-23 16:11:00,
2013-04-23 11:16:00,74.1,69.3,29.94,ESE,115,13.0,16.0,85,0.00,,---,0.00,VWS V14.01,2013-04-23 16:16:00,
2013-04-23 11:21:00,74.4,69.9,29.94,ESE,120,15.0,16.0,86,0.00,,---,0.00,VWS V14.01,2013-04-23 16:21:00,
2013-04-23 11:26:00,74.6,69.8,29.94,ESE,122,10.0,16.0,85,0.00,,---,0.00,VWS V14.01,2013-04-23 16:26:00,
2013-04-23 11:31:00,75.0,70.2,29.94,ESE,104,7.0,16.0,85,0.00,,---,0.00,VWS V14.01,2013-04-23 16:31:00,
2013-04-23 11:36:00,74.7,69.9,29.93,ESE,117,17.0,17.0,85,0.00,,---,0.00,VWS V14.01,2013-04-23 16:36:00,
2013-04-23 11:41:00,74.5,69.7,29.93,ESE,118,9.0,17.0,85,0.00,,---,0.00,VWS V14.01,2013-04-23 16:41:00,
2013-04-23 11:46:00,74.7,69.9,29.93,ESE,120,8.0,17.0,85,0.00,,---,0.00,VWS V14.01,2013-04-23 16:46:00,
2013-04-23 11:51:00,74.7,69.6,29.93,ESE,122,12.0,17.0,84,0.00,,---,0.00,VWS V14.01,2013-04-23 16:51:00,
2013-04-23 11:56:00,75.1,70.3,29.92,ESE,122,15.0,17.0,85,0.00,,---,0.00,VWS V14.01,2013-04-23 16:56:00,
2013-04-23 12:01:00,75.1,69.9,29.93,South,187,7.0,18.0,84,0.00,,---,0.00,VWS V14.01,2013-04-23 17:01:00,
2013-04-23 12:06:00,75.0,69.8,29.93,SE,127,9.0,18.0,84,0.00,,---,0.00,VWS V14.01,2013-04-23 17:06:00,
2013-04-23 12:11:00,75.2,70.7,29.93,ENE,61,5.0,18.0,86,0.00,,---,0.00,VWS V14.01,2013-04-23 17:11:00,
2013-04-23 12:16:00,75.4,70.2,29.93,ESE,115,7.0,18.0,84,0.00,,---,0.00,VWS V14.01,2013-04-23 17:16:00,
2013-04-23 12:21:00,75.6,70.4,29.93,ESE,110,14.0,18.0,84,0.00,,---,0.00,VWS V14.01,2013-04-23 17:21:00,
2013-04-23 12:26:00,75.4,70.6,29.93,ESE,107,7.0,19.0,85,0.00,,---,0.00,VWS V14.01,2013-04-23 17:26:00,
2013-04-23 12:31:00,75.3,69.8,29.93,ESE,117,13.0,19.0,83,0.00,,---,0.00,VWS V14.01,2013-04-23 17:31:00,
2013-04-23 12:36:00,75.1,69.9,29.92,ESE,107,12.0,19.0,84,0.00,,---,0.00,VWS V14.01,2013-04-23 17:36:00,
2013-04-23 12:41:00,75.4,70.2,29.93,SE,127,10.0,19.0,84,0.00,,---,0.00,VWS V14.01,2013-04-23 17:41:00,
2013-04-23 12:46:00,75.5,70.3,29.93,SE,127,8.0,19.0,84,0.00,,---,0.00,VWS V14.01,2013-04-23 17:46:00,
2013-04-23 12:51:00,75.8,70.6,29.92,ESE,122,10.0,19.0,84,0.00,,---,0.00,VWS V14.01,2013-04-23 17:51:00,
2013-04-23 12:56:00,75.9,70.4,29.93,East,96,4.0,19.0,83,0.00,,---,0.00,VWS V14.01,2013-04-23 17:56:00,
2013-04-23 13:01:00,76.0,70.8,29.92,SE,139,9.0,12.0,84,0.00,,---,0.00,VWS V14.01,2013-04-23 18:01:00,
2013-04-23 13:06:00,75.9,70.4,29.92,ESE,104,10.0,14.0,83,0.00,,---,0.00,VWS V14.01,2013-04-23 18:06:00,
2013-04-23 13:11:00,75.9,70.0,29.93,ESE,110,8.0,15.0,82,0.00,,---,0.00,VWS V14.01,2013-04-23 18:11:00,
2013-04-23 13:16:00,75.5,70.0,29.93,SE,133,10.0,15.0,83,0.00,,---,0.00,VWS V14.01,2013-04-23 18:16:00,
2013-04-23 13:21:00,75.6,70.4,29.93,SE,146,6.0,16.0,84,0.00,,---,0.00,VWS V14.01,2013-04-23 18:21:00,
2013-04-23 13:26:00,76.0,70.5,29.93,ESE,117,11.0,16.0,83,0.00,,---,0.00,VWS V14.01,2013-04-23 18:26:00,
2013-04-23 13:31:00,75.5,70.0,29.93,SE,126,8.0,17.0,83,0.00,,---,0.00,VWS V14.01,2013-04-23 18:31:00,
2013-04-23 13:36:00,75.6,70.4,29.92,ESE,120,13.0,17.0,84,0.00,,---,0.00,VWS V14.01,2013-04-23 18:36:00,
2013-04-23 13:41:00,75.6,70.4,29.92,ESE,113,12.0,17.0,84,0.00,,---,0.00,VWS V14.01,2013-04-23 18:41:00,
2013-04-23 13:46:00,75.6,70.4,29.92,ESE,118,9.0,17.0,84,0.00,,---,0.00,VWS V14.01,2013-04-23 18:46:00,
2013-04-23 13:51:00,75.9,70.7,29.92,ESE,118,9.0,17.0,84,0.00,,---,0.00,VWS V14.01,2013-04-23 18:51:00,
2013-04-23 13:56:00,75.7,70.2,29.92,East,96,7.0,17.0,83,0.00,,---,0.00,VWS V14.01,2013-04-23 18:56:00,
2013-04-23 14:01:00,75.5,70.3,29.91,ESE,122,6.0,12.0,84,0.00,,---,0.00,VWS V14.01,2013-04-23 19:01:00,
2013-04-23 14:06:00,75.7,70.5,29.91,ESE,112,6.0,15.0,84,0.00,,---,0.00,VWS V14.01,2013-04-23 19:06:00,
2013-04-23 14:12:00,75.5,70.7,29.91,ESE,116,5.0,16.0,85,0.00,,---,0.00,VWS V14.01,2013-04-23 19:12:00,
2013-04-23 14:17:00,75.4,70.2,29.91,ESE,107,12.0,16.0,84,0.00,,---,0.00,VWS V14.01,2013-04-23 19:17:00,
2013-04-23 14:22:00,75.1,70.3,29.91,ESE,110,8.0,16.0,85,0.00,,---,0.00,VWS V14.01,2013-04-23 19:22:00,
2013-04-23 14:27:00,74.8,70.0,29.91,SSE,150,7.0,16.0,85,0.00,,---,0.00,VWS V14.01,2013-04-23 19:27:00,
2013-04-23 14:32:00,75.0,70.5,29.91,ESE,107,13.0,16.0,86,0.00,,---,0.00,VWS V14.01,2013-04-23 19:32:00,
2013-04-23 14:37:00,75.0,70.5,29.91,SE,127,11.0,16.0,86,0.00,,---,0.00,VWS V14.01,2013-04-23 19:37:00,
2013-04-23 14:42:00,74.9,70.4,29.91,ESE,120,12.0,16.0,86,0.00,,---,0.00,VWS V14.01,2013-04-23 19:42:00,
2013-04-23 14:47:00,75.1,70.3,29.91,ESE,118,8.0,16.0,85,0.00,,---,0.00,VWS V14.01,2013-04-23 19:47:00,
2013-04-23 14:52:00,75.0,70.2,29.91,ESE,117,12.0,16.0,85,0.00,,---,0.00,VWS V14.01,2013-04-23 19:52:00,
2013-04-23 14:57:00,75.0,70.5,29.91,ESE,111,8.0,16.0,86,0.00,,---,0.00,VWS V14.01,2013-04-23 19:57:00,
2013-04-23 15:02:00,75.1,70.6,29.90,SE,127,12.0,15.0,86,0.00,,---,0.00,VWS V14.01,2013-04-23 20:02:00,
2013-04-23 15:07:00,74.8,70.0,29.90,ESE,120,12.0,17.0,85,0.00,,---,0.00,VWS V14.01,2013-04-23 20:07:00,
2013-04-23 15:12:00,74.8,70.3,29.90,SE,128,10.0,17.0,86,0.00,,---,0.00,VWS V14.01,2013-04-23 20:12:00,
2013-04-23 15:17:00,74.7,70.2,29.90,ESE,111,12.0,17.0,86,0.00,,---,0.00,VWS V14.01,2013-04-23 20:17:00,
2013-04-23 15:22:00,74.7,70.6,29.90,ESE,116,10.0,17.0,87,0.00,,---,0.00,VWS V14.01,2013-04-23 20:22:00,
2013-04-23 15:27:00,75.2,71.1,29.90,ESE,122,9.0,17.0,87,0.00,,---,0.00,VWS V14.01,2013-04-23 20:27:00,
2013-04-23 15:32:00,75.5,70.7,29.90,ESE,107,12.0,17.0,85,0.00,,---,0.00,VWS V14.01,2013-04-23 20:32:00,
2013-04-23 15:37:00,75.3,70.8,29.90,ESE,117,10.0,17.0,86,0.00,,---,0.00,VWS V14.01,2013-04-23 20:37:00,
2013-04-23 15:42:00,75.5,70.7,29.90,East,101,9.0,17.0,85,0.00,,---,0.00,VWS V14.01,2013-04-23 20:42:00,
2013-04-23 15:47:00,75.3,70.8,29.90,ESE,106,7.0,17.0,86,0.00,,---,0.00,VWS V14.01,2013-04-23 20:47:00,
2013-04-23 15:52:00,75.4,70.9,29.89,East,91,8.0,17.0,86,0.00,,---,0.00,VWS V14.01,2013-04-23 20:52:00,
2013-04-23 15:57:00,75.7,71.2,29.89,ESE,106,11.0,17.0,86,0.00,,---,0.00,VWS V14.01,2013-04-23 20:57:00,
2013-04-23 16:02:00,75.6,70.8,29.88,ENE,67,12.0,15.0,85,0.00,,---,0.00,VWS V14.01,2013-04-23 21:02:00,
2013-04-23 16:07:00,75.6,71.1,29.88,ESE,113,10.0,15.0,86,0.00,,---,0.00,VWS V14.01,2013-04-23 21:07:00,
2013-04-23 16:12:00,75.7,71.2,29.88,East,98,13.0,15.0,86,0.00,,---,0.00,VWS V14.01,2013-04-23 21:12:00,
2013-04-23 16:17:00,75.2,70.7,29.88,ESE,111,13.0,16.0,86,0.00,,---,0.00,VWS V14.01,2013-04-23 21:17:00,
2013-04-23 16:22:00,75.0,70.9,29.88,ESE,117,8.0,16.0,87,0.00,,---,0.00,VWS V14.01,2013-04-23 21:22:00,
2013-04-23 16:27:00,74.9,70.8,29.87,East,98,10.0,16.0,87,0.00,,---,0.00,VWS V14.01,2013-04-23 21:27:00,
2013-04-23 16:32:00,74.8,70.7,29.87,ESE,110,9.0,16.0,87,0.00,,---,0.00,VWS V14.01,2013-04-23 21:32:00,
2013-04-23 16:37:00,74.9,70.8,29.87,ESE,103,11.0,16.0,87,0.00,,---,0.00,VWS V14.01,2013-04-23 21:37:00,
2013-04-23 16:42:00,75.0,70.9,29.87,SE,130,13.0,16.0,87,0.00,,---,0.00,VWS V14.01,2013-04-23 21:42:00,
2013-04-23 16:47:00,74.8,70.7,29.87,ESE,104,7.0,16.0,87,0.00,,---,0.00,VWS V14.01,2013-04-23 21:47:00,
2013-04-23 16:52:00,74.8,71.0,29.87,East,98,12.0,16.0,88,0.00,,---,0.00,VWS V14.01,2013-04-23 21:52:00,
2013-04-23 16:57:00,74.7,70.9,29.87,SE,143,5.0,16.0,88,0.00,,---,0.00,VWS V14.01,2013-04-23 21:57:00,
2013-04-23 17:02:00,74.7,70.9,29.87,ESE,105,9.0,13.0,88,0.00,,---,0.00,VWS V14.01,2013-04-23 22:02:00,
2013-04-23 17:07:00,74.4,70.6,29.87,East,98,10.0,14.0,88,0.00,,---,0.00,VWS V14.01,2013-04-23 22:07:00,
2013-04-23 17:12:00,74.0,70.6,29.87,ESE,107,4.0,14.0,89,0.00,,---,0.00,VWS V14.01,2013-04-23 22:12:00,
2013-04-23 17:17:00,73.8,70.4,29.87,SE,129,4.0,14.0,89,0.00,,---,0.00,VWS V14.01,2013-04-23 22:17:00,
2013-04-23 17:22:00,73.7,70.3,29.88,ESE,112,12.0,14.0,89,0.00,,---,0.00,VWS V14.01,2013-04-23 22:22:00,
2013-04-23 17:27:00,73.7,70.6,29.88,ESE,118,8.0,14.0,90,0.00,,---,0.00,VWS V14.01,2013-04-23 22:27:00,
2013-04-23 17:32:00,73.7,70.6,29.88,ESE,122,7.0,14.0,90,0.00,,---,0.00,VWS V14.01,2013-04-23 22:32:00,
2013-04-23 17:37:00,73.6,70.5,29.88,ESE,103,10.0,14.0,90,0.00,,---,0.00,VWS V14.01,2013-04-23 22:37:00,
2013-04-23 17:42:00,73.6,70.5,29.88,ESE,117,8.0,14.0,90,0.00,,---,0.00,VWS V14.01,2013-04-23 22:42:00,
2013-04-23 17:47:00,73.6,70.5,29.87,East,82,9.0,14.0,90,0.00,,---,0.00,VWS V14.01,2013-04-23 22:47:00,
2013-04-23 17:52:00,73.7,70.6,29.87,SE,129,5.0,14.0,90,0.00,,---,0.00,VWS V14.01,2013-04-23 22:52:00,
2013-04-23 17:57:00,73.7,70.6,29.88,East,90,9.0,14.0,90,0.00,,---,0.00,VWS V14.01,2013-04-23 22:57:00,
2013-04-23 18:02:00,73.7,70.3,29.88,ENE,77,7.0,12.0,89,0.00,,---,0.00,VWS V14.01,2013-04-23 23:02:00,
2013-04-23 18:07:00,73.7,70.3,29.87,ESE,113,7.0,12.0,89,0.00,,---,0.00,VWS V14.01,2013-04-23 23:07:00,
2013-04-23 18:12:00,73.6,70.5,29.88,ESE,110,3.0,12.0,90,0.00,,---,0.00,VWS V14.01,2013-04-23 23:12:00,
2013-04-23 18:17:00,73.5,70.4,29.88,ENE,70,4.0,12.0,90,0.00,,---,0.00,VWS V14.01,2013-04-23 23:17:00,
2013-04-23 18:22:00,73.5,70.4,29.88,East,96,8.0,12.0,90,0.00,,---,0.00,VWS V14.01,2013-04-23 23:22:00,
2013-04-23 18:27:00,73.5,70.4,29.88,ESE,121,6.0,12.0,90,0.00,,---,0.00,VWS V14.01,2013-04-23 23:27:00,
2013-04-23 18:32:00,73.5,70.4,29.88,ESE,118,5.0,12.0,90,0.00,,---,0.00,VWS V14.01,2013-04-23 23:32:00,
2013-04-23 18:37:00,73.4,70.3,29.88,ESE,112,11.0,12.0,90,0.00,,---,0.00,VWS V14.01,2013-04-23 23:37:00,
2013-04-23 18:42:00,73.3,70.2,29.88,ENE,74,9.0,12.0,90,0.00,,---,0.00,VWS V14.01,2013-04-23 23:42:00,
2013-04-23 18:47:00,73.3,70.5,29.87,SE,129,6.0,12.0,91,0.00,,---,0.00,VWS V14.01,2013-04-23 23:47:00,
2013-04-23 18:52:00,73.3,70.5,29.87,East,99,6.0,12.0,91,0.00,,---,0.00,VWS V14.01,2013-04-23 23:52:00,
2013-04-23 18:57:00,73.2,70.4,29.88,East,97,9.0,12.0,91,0.00,,---,0.00,VWS V14.01,2013-04-23 23:57:00,
2013-04-23 19:02:00,73.1,70.3,29.88,ESE,118,5.0,11.0,91,0.00,,---,0.00,VWS V14.01,2013-04-24 00:02:00,
2013-04-23 19:07:00,73.1,70.3,29.88,East,94,6.0,11.0,91,0.00,,---,0.00,VWS V14.01,2013-04-24 00:07:00,
2013-04-23 19:12:00,73.1,70.3,29.88,East,86,5.0,11.0,91,0.00,,---,0.00,VWS V14.01,2013-04-24 00:12:00,
2013-04-23 19:17:00,73.0,70.2,29.88,ENE,77,6.0,11.0,91,0.00,,---,0.00,VWS V14.01,2013-04-24 00:17:00,
2013-04-23 19:22:00,72.9,70.4,29.88,East,87,5.0,11.0,92,0.00,,---,0.00,VWS V14.01,2013-04-24 00:22:00,
2013-04-23 19:27:00,72.9,70.4,29.88,ESE,109,10.0,11.0,92,0.00,,---,0.00,VWS V14.01,2013-04-24 00:27:00,
2013-04-23 19:32:00,72.8,70.3,29.88,ENE,75,1.0,11.0,92,0.00,,---,0.00,VWS V14.01,2013-04-24 00:32:00,
2013-04-23 19:37:00,72.8,70.3,29.89,SE,145,3.0,11.0,92,0.00,,---,0.00,VWS V14.01,2013-04-24 00:37:00,
2013-04-23 19:42:00,72.8,70.3,29.88,East,89,6.0,11.0,92,0.00,,---,0.00,VWS V14.01,2013-04-24 00:42:00,
2013-04-23 19:47:00,72.7,70.2,29.89,ENE,66,2.0,11.0,92,0.00,,---,0.00,VWS V14.01,2013-04-24 00:47:00,
2013-04-23 19:52:00,72.7,70.6,29.89,ENE,67,5.0,11.0,93,0.00,,---,0.00,VWS V14.01,2013-04-24 00:52:00,
2013-04-23 19:57:00,72.7,70.6,29.89,East,101,4.0,11.0,93,0.00,,---,0.00,VWS V14.01,2013-04-24 00:57:00,
2013-04-23 20:02:00,72.6,70.5,29.89,ENE,58,8.0,8.0,93,0.00,,---,0.00,VWS V14.01,2013-04-24 01:02:00,
2013-04-23 20:07:00,72.6,70.5,29.90,East,98,3.0,9.0,93,0.00,,---,0.00,VWS V14.01,2013-04-24 01:07:00,
2013-04-23 20:12:00,72.5,70.4,29.89,East,97,2.0,10.0,93,0.00,,---,0.00,VWS V14.01,2013-04-24 01:12:00,
2013-04-23 20:17:00,72.4,70.3,29.90,ESE,103,8.0,10.0,93,0.00,,---,0.00,VWS V14.01,2013-04-24 01:17:00,
2013-04-23 20:22:00,72.4,70.3,29.90,ENE,77,9.0,10.0,93,0.00,,---,0.00,VWS V14.01,2013-04-24 01:22:00,
2013-04-23 20:27:00,72.4,70.6,29.90,ENE,70,7.0,10.0,94,0.00,,---,0.00,VWS V14.01,2013-04-24 01:27:00,
2013-04-23 20:32:00,72.3,70.5,29.90,East,100,6.0,10.0,94,0.00,,---,0.00,VWS V14.01,2013-04-24 01:32:00,
2013-04-23 20:37:00,72.3,70.5,29.90,ESE,111,7.0,10.0,94,0.00,,---,0.00,VWS V14.01,2013-04-24 01:37:00,
2013-04-23 20:42:00,72.3,70.5,29.91,East,101,9.0,10.0,94,0.00,,---,0.00,VWS V14.01,2013-04-24 01:42:00,
2013-04-23 20:47:00,72.3,70.5,29.91,ENE,73,5.0,12.0,94,0.00,,---,0.00,VWS V14.01,2013-04-24 01:47:00,
2013-04-23 20:52:00,72.2,70.4,29.91,ENE,77,2.0,12.0,94,0.00,,---,0.00,VWS V14.01,2013-04-24 01:52:00,
2013-04-23 20:57:00,72.2,70.4,29.91,ESE,113,5.0,12.0,94,0.00,,---,0.00,VWS V14.01,2013-04-24 01:57:00,
2013-04-23 21:02:00,72.2,70.4,29.91,East,92,6.0,11.0,94,0.00,,---,0.00,VWS V14.01,2013-04-24 02:02:00,
2013-04-23 21:07:00,72.2,70.4,29.92,ENE,78,7.0,11.0,94,0.00,,---,0.00,VWS V14.01,2013-04-24 02:07:00,
2013-04-23 21:12:00,72.2,70.4,29.92,East,98,6.0,11.0,94,0.00,,---,0.00,VWS V14.01,2013-04-24 02:12:00,
2013-04-23 21:17:00,72.2,70.4,29.92,ENE,61,5.0,11.0,94,0.00,,---,0.00,VWS V14.01,2013-04-24 02:17:00,
2013-04-23 21:22:00,72.2,70.4,29.92,ENE,63,5.0,11.0,94,0.00,,---,0.00,VWS V14.01,2013-04-24 02:22:00,
2013-04-23 21:27:00,72.1,70.3,29.92,East,79,7.0,11.0,94,0.00,,---,0.00,VWS V14.01,2013-04-24 02:27:00,
2013-04-23 21:32:00,72.1,70.3,29.92,ENE,74,7.0,11.0,94,0.00,,---,0.00,VWS V14.01,2013-04-24 02:32:00,
2013-04-23 21:37:00,72.0,70.5,29.92,East,94,5.0,11.0,95,0.00,,---,0.00,VWS V14.01,2013-04-24 02:37:00,
2013-04-23 21:43:00,72.0,70.5,29.92,ENE,77,8.0,11.0,95,0.00,,---,0.00,VWS V14.01,2013-04-24 02:43:00,
2013-04-23 21:48:00,72.0,70.5,29.93,ESE,103,4.0,11.0,95,0.00,,---,0.00,VWS V14.01,2013-04-24 02:48:00,
2013-04-23 21:53:00,72.0,70.5,29.93,ENE,69,9.0,11.0,95,0.00,,---,0.00,VWS V14.01,2013-04-24 02:53:00,
2013-04-23 21:58:00,72.0,70.5,29.94,East,91,5.0,11.0,95,0.00,,---,0.00,VWS V14.01,2013-04-24 02:58:00,
2013-04-23 22:03:00,72.1,70.6,29.94,East,87,4.0,9.0,95,0.00,,---,0.00,VWS V14.01,2013-04-24 03:03:00,
2013-04-23 22:08:00,72.1,70.6,29.94,ENE,72,4.0,10.0,95,0.00,,---,0.00,VWS V14.01,2013-04-24 03:08:00,
2013-04-23 22:13:00,72.1,70.6,29.94,ESE,116,6.0,10.0,95,0.00,,---,0.00,VWS V14.01,2013-04-24 03:13:00,
2013-04-23 22:18:00,72.1,70.6,29.94,East,85,5.0,10.0,95,0.00,,---,0.00,VWS V14.01,2013-04-24 03:18:00,
2013-04-23 22:23:00,72.1,70.6,29.94,ENE,74,7.0,13.0,95,0.00,,---,0.00,VWS V14.01,2013-04-24 03:23:00,
2013-04-23 22:28:00,72.2,70.7,29.94,ESE,120,4.0,13.0,95,0.00,,---,0.00,VWS V14.01,2013-04-24 03:28:00,
2013-04-23 22:33:00,72.2,70.7,29.95,East,98,4.0,13.0,95,0.00,,---,0.00,VWS V14.01,2013-04-24 03:33:00,
2013-04-23 22:38:00,72.2,70.7,29.95,ENE,75,5.0,13.0,95,0.00,,---,0.00,VWS V14.01,2013-04-24 03:38:00,
2013-04-23 22:43:00,72.2,70.7,29.95,ESE,108,8.0,13.0,95,0.00,,---,0.00,VWS V14.01,2013-04-24 03:43:00,
2013-04-23 22:49:00,72.2,70.7,29.95,ENE,78,5.0,13.0,95,0.00,,---,0.00,VWS V14.01,2013-04-24 03:49:00,
2013-04-23 22:54:00,72.3,70.8,29.95,ENE,58,9.0,13.0,95,0.00,,---,0.00,VWS V14.01,2013-04-24 03:54:00,
2013-04-23 22:59:00,72.2,70.7,29.95,East,89,10.0,13.0,95,0.00,,---,0.00,VWS V14.01,2013-04-24 03:59:00,
2013-04-23 23:01:00,72.2,70.7,29.95,East,81,8.0,8.0,95,0.00,,---,0.00,VWS V14.01,2013-04-24 04:01:00,
2013-04-23 23:06:00,72.2,70.7,29.95,East,99,9.0,10.0,95,0.00,,---,0.00,VWS V14.01,2013-04-24 04:06:00,
2013-04-23 23:11:00,72.2,70.7,29.95,East,91,6.0,10.0,95,0.00,,---,0.00,VWS V14.01,2013-04-24 04:11:00,
2013-04-23 23:16:00,72.2,70.7,29.95,SE,135,4.0,10.0,95,0.00,,---,0.00,VWS V14.01,2013-04-24 04:16:00,
2013-04-23 23:21:00,72.2,70.7,29.96,ENE,61,6.0,11.0,95,0.00,,---,0.00,VWS V14.01,2013-04-24 04:21:00,
2013-04-23 23:26:00,72.3,70.8,29.96,ESE,105,2.0,11.0,95,0.00,,---,0.00,VWS V14.01,2013-04-24 04:26:00,
2013-04-23 23:31:00,72.3,70.8,29.96,East,82,5.0,11.0,95,0.00,,---,0.00,VWS V14.01,2013-04-24 04:31:00,
2013-04-23 23:36:00,72.3,70.8,29.96,ENE,71,5.0,11.0,95,0.00,,---,0.00,VWS V14.01,2013-04-24 04:36:00,
2013-04-23 23:41:00,72.3,70.8,29.96,ENE,75,4.0,11.0,95,0.00,,---,0.00,VWS V14.01,2013-04-24 04:41:00,
2013-04-23 23:46:00,72.3,70.8,29.97,East,98,4.0,11.0,95,0.00,,---,0.00,VWS V14.01,2013-04-24 04:46:00,
2013-04-23 23:51:00,72.3,70.8,29.97,ENE,67,4.0,11.0,95,0.00,,---,0.00,VWS V14.01,2013-04-24 04:51:00,
2013-04-23 23:56:00,72.3,70.8,29.97,ENE,64,3.0,11.0,95,0.00,,---,0.00,VWS V14.01,2013-04-24 04:56:00,